Zurück zum Katalog

THORAD DELTA 1 DEB

AktivSSO
NORAD 8306·DEBRIS·🇺🇸 United States

Gestartet Nov 15, 1974 von Vandenberg Space Force Base

Loading…

Nächste Überflüge (nächste 24 Stunden)

TLE

AktuellSource: Space-Track

Epoche: Sep 14, 2026, 08:32 UTC

1 08306U 74089BP  26257.35566208  .00000377  00000-0  26985-2 0  9991
2 08306 101.9964  33.2498 0074559 321.6630  64.6036 12.51659659358111

Verfolge THORAD DELTA 1 DEB in Echtzeit mit AllMySat

Download on the App Store